Location: Corona del Mar
(33.5981°N, 117.8731°W)
Time: 12:16:23
(UTC+00:00)

Daily predictions for brighter satellites

Satellite Brightness Start Highest point End
(mag) Time Altitude Azimuth Time Altitude Azimuth Time Altitude Azimuth
USA 238 DEB 4.3 12:10:11 40° N 12:10:11 40° N 12:14:30 10° NNE
USA 238 4.3 12:10:15 40° N 12:10:15 40° N 12:14:36 10° NNE
Cosmos 2034 Rocket 4.1 12:08:28 51° NNE 12:10:06 73° E 12:16:23 10° SSE
Chandra Rocket (1) 4.4 12:15:51 12° SSE 12:15:51 12° SSE 12:16:03 10° SE
Cosmos 1943 Rocket 3.9 12:34:38 19° N 12:34:38 19° N 12:36:18 10° N
Tsikada Rocket 3.8 12:26:41 10° S 12:32:50 77° W 12:39:07 10° N
CZ-2C R/B 4.2 12:27:56 10° SE 12:32:51 34° ENE 12:37:42 10° N
Cosmos 2082 Rocket 3.4 12:45:15 26° SW 12:45:15 26° SW 12:48:07 10° SSW
CZ-4B R/B 4.5 12:48:05 10° NNE 12:52:33 65° ESE 12:56:57 10° S
Cosmos 1812 3.8 12:52:26 11° N 12:56:00 44° E 12:59:39 10° SSE
Okean 3 Rocket 4.3 12:52:08 10° S 12:56:32 54° E 13:00:58 10° NNE
SL-19 R/B 4.3 12:51:47 10° SSE 12:57:27 83° ENE 13:03:01 10° NNW
Cosmos 1241 Rocket 4.4 12:53:49 22° NNW 12:57:58 81° ENE 13:04:10 10° SSE
Cosmos 921 Rocket 3.7 12:54:48 15° N 12:58:18 55° ENE 13:02:40 10° SSE
DELTA 2 R/B (1) 3.5 12:56:59 44° W 12:58:42 69° NNW 13:04:14 10° ENE
MOS 1-B Rocket 4.0 12:52:25 10° SSE 12:59:07 88° ENE 13:05:01 10° NNW
Cosmos 2098 Rocket 2.7 12:56:07 10° S 12:59:35 84° E 13:03:58 10° N
Envisat 2.8 12:55:06 10° N 13:00:12 81° WNW 13:05:15 10° SSW
Cosmos 968 Rocket 4.3 13:03:36 30° NW 13:03:36 30° NW 13:06:56 10° N
CZ-3 R/B 4.0 12:50:45 10° SW 13:05:07 29° S 13:10:46 10° ESE
Cosmos 1766 Rocket 3.5 13:04:15 10° S 13:08:35 88° E 13:12:56 10° N
Meteor 2-3 Rocket 4.3 13:05:11 10° SW 13:10:11 33° WNW 13:15:17 10° NNW
CENTAUR R/B 3.9 13:12:13 19° NW 13:12:13 19° NW 13:16:22 10° N
Cosmos 1151 Rocket 3.4 13:07:40 10° N 13:12:02 67° E 13:16:22 10° SSE
Meteor 1-31 Rocket 2.6 13:10:35 10° N 13:14:27 68° WNW 13:18:20 10° SSW
Cosmos 1782 2.9 13:14:10 34° NW 13:15:26 48° W 13:19:14 10° SSW
Hubble Space Telescope 2.6 13:15:04 17° SW 13:16:30 20° SSW 13:19:34 10° SSE
Cosmos 1862 3.1 13:13:22 10° SSW 13:17:17 73° W 13:21:14 10° N
ATLAS 5 CENTAUR R/B 2.9 13:16:01 10° S 13:19:25 35° ESE 13:23:01 10° NE
Cosmos 1354 Rocket 4.0 13:16:25 10° SSW 13:21:40 87° ESE 13:26:59 10° NNE
CBERS 1 LM4 rocket 4.5 13:19:12 10° N 13:23:59 55° WNW 13:28:56 10° SSW
FALCON 9 R/B 4.0 13:05:29 21° W 13:24:06 89° N 13:30:58 10° E
SJ-12 4.4 13:20:31 10° N 13:24:18 35° WNW 13:28:04 10° SW
Cosmos 1328 Rocket 3.9 13:21:25 10° N 13:25:46 66° E 13:30:03 10° SSE
H-2A R/B 3.4 13:22:55 10° NNW 13:26:13 30° WNW 13:29:32 10° SW
COSMO-SKYMED 1 2.5 13:22:11 10° S 13:26:29 68° WSW 13:30:49 10° NNW
ADEOS 3.5 13:21:27 10° NNE 13:26:42 89° ESE 13:31:55 10° SSW
CZ-4C R/B 3.2 13:26:08 10° SSE 13:29:15 60° ENE 13:32:21 10° N
Gbstr 26 Del rocket 3.4 13:33:48 22° WNW 13:35:54 42° SW 13:40:10 10° SSE
CZ-2C R/B 3.3 13:31:04 10° NNE 13:35:59 71° ESE 13:41:08 10° S
ATLAS 3B R/B 3.3 13:32:15 10° SSW 13:38:32 58° ESE 13:45:04 10° NE
CZ-4B R/B 2.8 13:37:16 10° NNE 13:40:50 71° ESE 13:44:24 10° S
Cosmos 1408 Rocket 3.4 13:39:21 10° S 13:43:39 82° W 13:47:57 10° N
Cosmos 2369 Rocket 3.2 13:42:53 10° WSW 13:47:09 22° WNW 13:51:26 10° N
OAO 3 Rocket 4.5 13:43:59 13° W 13:47:39 30° SSW 13:51:57 10° SSE
Uosat 12 SS-18 rocket 4.4 13:44:04 10° SW 13:48:50 75° WNW 13:54:45 10° NNE
Centaur D-1A AC-35 3.8 13:46:25 10° SW 13:49:57 27° S 13:53:27 10° ESE
Cosmos 1743 Rocket 4.2 13:46:57 10° S 13:51:16 59° E 13:55:34 10° NNE
H-2A R/B 4.1 13:56:30 10° NE 14:00:50 30° E 14:05:09 10° SSE
USA 215 3.5 13:55:07 10° SE 14:01:36 71° NE 14:08:06 10° NW
Cosmos 2279 Rocket 4.3 13:55:52 10° NNW 14:01:44 46° W 14:07:36 10° SSW
FAST Rocket 4.0 13:59:03 10° S 14:01:49 78° E 14:04:27 10° N
Nadezhda 4 Rocket 4.0 13:58:56 10° SSW 14:05:01 69° W 14:11:12 10° N
DMSP B5D2-2 4.1 14:00:43 10° S 14:05:56 79° WSW 14:11:10 10° NNW
Cosmos 1515 Rocket 3.5 14:02:08 10° N 14:06:29 78° W 14:10:48 10° S
SJ 16-02 1.3 14:03:23 10° SSW 14:07:44 68° WNW 14:12:06 10° N
SL-27 R/B 3.6 14:04:53 10° N 14:08:20 45° ENE 14:11:42 10° SSE
Cosmos 1340 Rocket 2.7 14:04:58 10° S 14:08:53 79° W 14:12:51 10° N
Meteor 1-20 Rocket 4.5 14:07:01 10° S 14:12:30 75° E 14:18:08 10° NNE
CZ-2C R/B 3.7 14:08:34 10° SSW 14:13:05 26° W 14:17:33 10° NW
Cosmos 1777 Rocket 4.1 14:09:36 10° SSW 14:14:41 55° WNW 14:19:48 10° N
